FW0960 Weather Reports


time (UTC)temp
F
wind
direction
speed
knots
gust
knots
rain 1hr
in
rain 24hr
in
rain mn
in
humidity
%
barometer
mb
20260503194451 58 124 1.7 6.1 0.00 0.00 0.00 44 1015.0
20260503193946 58 149 1.7 5.2 0.00 0.00 0.00 44 1015.1
20260503193445 58 205 1.7 7.8 0.00 0.00 0.00 44 1015.1
20260503192949 58 199 1.7 7.8 0.00 0.00 0.00 46 1015.0
20260503191938 58 196 1.7 7.0 0.00 0.00 0.00 43 1015.3
20260503191433 57 124 1.7 6.1 0.00 0.00 0.00 47 1015.3
20260503190927 57 213 1.7 5.2 0.00 0.00 0.00 44 1015.2
20260503190420 57 134 1.7 5.2 0.00 0.00 0.00 43 1015.3
20260503185915 57 148 1.7 6.1 0.00 0.00 0.00 43 1015.4
20260503185405 57 170 0.9 6.1 0.00 0.00 0.00 43 1015.5
20260503184910 57 250 0.9 4.3 0.00 0.00 0.00 47 1015.2
20260503184408 57 115 1.7 6.1 0.00 0.00 0.00 47 1015.5
20260503183409 57 178 1.7 6.1 0.00 0.00 0.00 46 1015.5
20260503182406 57 167 1.7 6.1 0.00 0.00 0.00 45 1015.7
20260503181902 57 165 1.7 6.1 0.00 0.00 0.00 49 1015.6
20260503181405 57 149 0.9 5.2 0.00 0.00 0.00 48 1015.7
20260503180903 56 149 0.9 4.3 0.00 0.00 0.00 48 1015.7
20260503180404 56 157 0.9 4.3 0.00 0.00 0.00 50 1015.5
20260503175903 56 203 1.7 5.2 0.00 0.00 0.00 47 1015.6
20260503174903 55 196 1.7 7.0 0.00 0.00 0.00 48 1015.5
20260503173905 55 188 1.7 7.0 0.00 0.00 0.00 49 1015.5
20260503173403 55 182 1.7 6.1 0.00 0.00 0.00 50 1015.5
20260503172403 55 202 0.9 7.8 0.00 0.00 0.00 49 1015.7
20260503171901 55 158 1.7 5.2 0.00 0.00 0.00 51 1015.6
20260503170907 54 231 1.7 7.0 0.00 0.00 0.00 50 1015.7
20260503170402 54 213 1.7 7.0 0.00 0.00 0.00 52 1015.7
20260503150835 50 177 1.7 8.7 0.00 0.00 0.00 60 1016.0
20260503150343 50 183 1.7 8.7 0.00 0.00 0.00 59 1016.1
20260503130253 48 206 0.9 4.3 0.00 0.00 0.00 69 1015.9
20260503110739 45 189 0.9 3.5 0.00 0.00 0.00 74 1014.5
20260503110239 44 176 0.9 3.5 0.00 0.00 0.00 75 1014.5
20260503100237 44 153 0.0 0.0 0.00 0.00 0.00 76 1013.5
20260503090233 45 221 0.0 0.0 0.00 0.00 0.00 74 1012.8
20260503081225 46 192 0.0 0.0 0.00 0.00 0.00 72 1012.6
20260503080726 46 192 0.0 0.0 0.00 0.00 0.00 72 1012.5
20260503072208 47 195 0.0 0.0 0.00 0.00 0.00 69 1012.3
20260503071205 48 211 0.0 0.0 0.00 0.00 0.00 69 1012.3
20260503070702 48 211 0.0 0.0 0.00 0.00 0.00 67 1012.2
20260503070157 49 202 0.0 1.7 0.00 0.00 0.00 66 1012.1
20260503060136 51 215 0.9 4.3 0.00 0.00 0.00 61 1012.2
20260503054634 51 198 0.9 3.5 0.00 0.00 0.00 65 1011.9
20260503054136 52 196 0.9 3.5 0.00 0.00 0.00 65 1012.0
20260503053633 52 209 0.9 3.5 0.00 0.00 0.00 65 1011.9
20260503053133 52 189 0.9 5.2 0.00 0.00 0.00 65 1012.1
20260503052631 52 224 0.9 5.2 0.00 0.00 0.00 65 1011.9
20260503052135 52 205 0.9 4.3 0.00 0.00 0.00 65 1011.8
20260503051630 52 210 1.7 5.2 0.00 0.00 0.00 64 1011.9
20260503051132 53 222 1.7 5.2 0.00 0.00 0.00 63 1011.8
20260503050130 53 200 0.9 7.0 0.00 0.00 0.00 63 1012.0
20260503045633 53 205 0.9 4.3 0.00 0.00 0.00 63 1012.2
20260503045129 53 205 0.9 4.3 0.00 0.00 0.00 63 1012.1
20260503044633 53 206 0.9 2.6 0.00 0.00 0.00 63 1012.1
20260503044126 53 209 0.9 2.6 0.00 0.00 0.00 61 1012.1
20260503043643 53 204 0.9 5.2 0.00 0.00 0.00 61 1012.1
20260503042626 53 203 0.9 2.6 0.00 0.00 0.00 60 1012.3
20260503042125 53 202 0.9 7.0 0.00 0.00 0.00 59 1012.3
20260503041623 53 204 0.9 7.0 0.00 0.00 0.00 60 1012.3
20260503041124 53 187 0.9 2.6 0.00 0.00 0.00 61 1012.3
20260503040625 53 191 0.9 3.5 0.00 0.00 0.00 61 1012.2
20260503040125 53 201 0.9 3.5 0.00 0.00 0.00 59 1012.3
20260503035623 53 202 0.9 2.6 0.00 0.00 0.00 59 1012.7
20260503035130 53 210 0.9 2.6 0.00 0.00 0.00 59 1012.8
20260503034623 53 225 0.9 3.5 0.00 0.00 0.00 59 1012.6
20260503034139 53 190 0.9 3.5 0.00 0.00 0.00 59 1012.5
20260503033123 53 213 0.9 5.2 0.00 0.00 0.00 60 1012.4
20260503032620 54 215 0.9 4.3 0.00 0.00 0.00 58 1012.4
20260503032120 54 214 0.9 4.3 0.00 0.00 0.00 58 1012.3
20260503031112 54 217 0.9 3.5 0.00 0.00 0.00 57 1012.6
20260503030614 54 187 0.9 3.5 0.00 0.00 0.00 56 1012.5
20260503030114 54 207 0.9 2.6 0.00 0.00 0.00 57 1012.6
20260503025615 54 235 0.9 2.6 0.00 0.00 0.00 56 1012.5
20260503024610 54 216 0.9 3.5 0.00 0.00 0.00 56 1012.6
20260503024112 54 200 0.9 3.5 0.00 0.00 0.00 58 1012.6
20260503023613 54 220 0.9 3.5 0.00 0.00 0.00 57 1012.6
20260503023110 55 200 0.9 3.5 0.00 0.00 0.00 57 1012.4
20260503022610 55 199 0.9 3.5 0.00 0.00 0.00 56 1012.4
20260503022108 55 208 0.9 4.3 0.00 0.00 0.00 55 1012.4
20260503021613 55 209 0.9 6.1 0.00 0.00 0.00 55 1012.4
20260503021111 55 188 0.9 6.1 0.00 0.00 0.00 57 1012.5
20260503020609 55 220 0.9 2.6 0.00 0.00 0.00 55 1012.3
20260503020108 55 198 0.9 2.6 0.00 0.00 0.00 55 1012.3
20260503015610 55 204 0.9 2.6 0.00 0.00 0.00 55 1012.2
20260503015112 55 205 0.9 2.6 0.00 0.00 0.00 55 1012.3
20260503014609 55 200 0.9 1.7 0.00 0.00 0.00 55 1012.5
20260503014114 55 207 0.9 1.7 0.00 0.00 0.00 55 1012.4
20260503013609 55 206 0.9 1.7 0.00 0.00 0.00 56 1012.4
20260503012107 55 204 0.9 1.7 0.00 0.00 0.00 58 1012.3
20260503011105 56 204 0.9 1.7 0.00 0.00 0.00 59 1012.3
20260503010605 56 204 0.9 1.7 0.00 0.00 0.00 58 1012.0
20260503010105 56 204 0.9 1.7 0.00 0.00 0.00 59 1012.0
20260503005609 56 204 0.9 1.7 0.00 0.00 0.00 59 1011.9
20260503005110 56 202 0.9 3.5 0.00 0.00 0.00 59 1011.8
20260503004608 56 205 0.9 3.5 0.00 0.00 0.00 58 1012.0
20260503004106 56 190 0.9 1.7 0.00 0.00 0.00 60 1011.8
20260503003601 56 199 0.9 1.7 0.00 0.00 0.00 63 1011.6
20260503003104 56 200 0.9 1.7 0.00 0.00 0.00 63 1011.6
20260503002605 56 200 0.0 1.7 0.00 0.00 0.00 64 1011.7
20260503002110 56 200 0.0 1.7 0.00 0.00 0.00 63 1011.7
20260503001605 56 200 0.0 1.7 0.00 0.00 0.00 63 1011.7
20260503000040 56 200 0.0 0.9 0.00 0.00 0.00 61 1011.7
20260502235532 56 198 0.0 0.9 0.00 0.00 0.00 61 1011.7
20260502235033 56 198 0.9 0.9 0.00 0.00 0.00 60 1011.6
20260502234532 56 198 0.9 1.7 0.00 0.00 0.00 60 1011.6
20260502234030 56 198 0.9 1.7 0.00 0.00 0.00 61 1011.3
20260502233032 57 206 0.9 1.7 0.00 0.00 0.00 59 1011.0
20260502232534 57 205 0.9 1.7 0.00 0.00 0.00 59 1011.3
20260502232030 57 205 0.9 1.7 0.00 0.00 0.00 58 1011.4
20260502231534 57 199 0.9 1.7 0.00 0.00 0.00 59 1011.4
20260502231037 57 200 0.9 1.7 0.00 0.00 0.00 58 1011.4
20260502230030 57 208 0.9 1.7 0.00 0.00 0.00 57 1011.5
20260502225532 57 204 0.9 1.7 0.00 0.00 0.00 57 1011.7
20260502225032 57 204 0.9 2.6 0.00 0.00 0.00 58 1011.5
20260502224531 57 202 0.9 2.6 0.00 0.00 0.00 57 1011.5
20260502224030 57 204 0.9 1.7 0.00 0.00 0.00 59 1011.6
20260502223530 57 202 0.9 1.7 0.00 0.00 0.00 57 1011.7
20260502223034 57 198 0.9 1.7 0.00 0.00 0.00 56 1011.6
20260502222521 57 201 0.9 1.7 0.00 0.00 0.00 57 1011.6
20260502221516 57 203 0.0 0.9 0.00 0.00 0.00 58 1011.4
20260502221019 57 205 0.9 0.9 0.00 0.00 0.00 58 1011.6
20260502220525 56 201 0.9 1.7 0.00 0.00 0.00 60 1011.6
20260502215515 56 200 0.9 1.7 0.00 0.00 0.00 62 1011.7
20260502215011 56 200 0.9 1.7 0.00 0.00 0.00 59 1011.6
20260502214013 56 188 0.9 3.5 0.00 0.00 0.00 59 1011.7
20260502213511 56 210 0.9 3.5 0.00 0.00 0.00 57 1011.6
20260502213013 56 198 0.9 0.9 0.00 0.00 0.00 59 1011.8
20260502212511 56 197 0.9 1.7 0.00 0.00 0.00 59 1011.6
20260502212013 56 200 0.9 1.7 0.00 0.00 0.00 58 1011.7
20260502211511 56 198 0.9 3.5 0.00 0.00 0.00 58 1011.8
20260502211012 56 205 0.9 3.5 0.00 0.00 0.00 56 1011.6
20260502210510 56 213 0.9 2.6 0.00 0.00 0.00 60 1011.6
20260502210006 56 207 0.9 2.6 0.00 0.00 0.00 60 1011.4
20260502205503 56 216 0.9 3.5 0.00 0.00 0.00 62 1011.4
20260502204503 56 199 0.9 4.3 0.00 0.00 0.00 59 1011.2
20260502204008 56 207 0.9 4.3 0.00 0.00 0.00 59 1011.3
20260502203503 56 194 0.9 3.5 0.00 0.00 0.00 57 1011.5
20260502203006 56 180 0.9 3.5 0.00 0.00 0.00 61 1011.5
20260502202504 56 174 0.9 5.2 0.00 0.00 0.00 63 1011.3
20260502202003 56 173 0.9 5.2 0.00 0.00 0.00 63 1011.2
20260502201502 56 201 0.9 4.3 0.00 0.00 0.00 65 1011.4
20260502200502 56 215 0.9 4.3 0.00 0.00 0.00 66 1011.4
20260502200007 56 208 0.9 4.3 0.00 0.00 0.00 65 1011.6
20260502195503 56 178 0.9 5.2 0.00 0.00 0.00 66 1011.4
20260502195025 56 217 0.9 5.2 0.00 0.00 0.00 66 1011.5